Dades meteomassalio
Diari Summary for Juny 10, 2017 Units:  English    Metric   Both
« Previous Day
Next Day »
Diari Semanal Mensual Anual Personalitzat
  Maxima: Minima: Mijana:
Temperatura: TemperatureC °F 15.8 °F 24.4 °F
Rosada: DewpointC °F 13.2 °F 15.4 °F
Humitat: Humidity % 39 % 60 %
Velocitat del vent: WindSpeedKMH mph 0.0 mph 3.9 mph
Racha vent: WindSpeedGustKMH mph - -
Vent:- - East
Pressio: PressurehPa in 1014.1 in -
Pluja: 0.0 in    
Historical Graphs
 
 
Tabular Data for Juny 10, 2017
Time Temperature Dew Point Pressure Wind Wind Speed Wind Gust Humidity Rainfall Rate (Hourly) solar Conditions
TemperatureC °F DewpointC °F PressurehPa in Calm     Humidity % HourlyPrecipMM in SolarRadiationWatts/m^2 W/m2 Conditions
00:03 21.4 °F 14.3 °F 1015.1 in Calm     64 % 0.0 in 0.0 W/m2 CLR
00:08 21.4 °F 14.1 °F 1015.1 in Calm     63 % 0.0 in 0.0 W/m2 CLR
00:13 21.4 °F 14.1 °F 1015.1 in Calm     63 % 0.0 in 0.0 W/m2 CLR
00:18 21.4 °F 14.3 °F 1015.1 in Calm     64 % 0.0 in 0.0 W/m2 CLR
00:23 21.2 °F 14.4 °F 1015.1 in Calm     65 % 0.0 in 0.0 W/m2 CLR
00:28 21.1 °F 14.4 °F 1015.1 in Calm     66 % 0.0 in 0.0 W/m2 CLR
00:33 20.8 °F 14.5 °F 1015.1 in Calm     67 % 0.0 in 0.0 W/m2 CLR
00:38 20.6 °F 14.3 °F 1015.1 in Calm     67 % 0.0 in 0.0 W/m2 CLR
00:43 20.5 °F 14.4 °F 1015.1 in Calm     68 % 0.0 in 0.0 W/m2 CLR
00:48 20.4 °F 14.6 °F 1015.1 in Calm     69 % 0.0 in 0.0 W/m2 CLR
00:53 20.4 °F 14.5 °F 1015.1 in Calm     69 % 0.0 in 0.0 W/m2 CLR
00:58 20.3 °F 14.4 °F 1015.1 in Calm     69 % 0.0 in 0.0 W/m2 CLR
01:03 20.2 °F 14.5 °F 1015.5 in Calm     70 % 0.0 in 0.0 W/m2 CLR
01:08 20.1 °F 14.4 °F 1015.5 in Calm     70 % 0.0 in 0.0 W/m2 CLR
01:13 20.1 °F 14.4 °F 1015.5 in Calm     70 % 0.0 in 0.0 W/m2 CLR
01:18 20.1 °F 14.4 °F 1015.5 in Calm     70 % 0.0 in 0.0 W/m2 CLR
01:23 20.1 °F 14.7 °F 1015.5 in Calm     71 % 0.0 in 0.0 W/m2 CLR
01:28 20.0 °F 15.0 °F 1015.5 in Calm     73 % 0.0 in 0.0 W/m2 CLR
01:33 19.9 °F 14.9 °F 1015.5 in ESE 5.6 mph 5.6 mph 73 % 0.0 in 0.0 W/m2 CLR
01:38 20.0 °F 15.0 °F 1015.5 in Calm     73 % 0.0 in 0.0 W/m2 CLR
01:43 19.9 °F 15.2 °F 1015.5 in Calm     74 % 0.0 in 0.0 W/m2 CLR
01:44 19.9 °F 15.2 °F 1015.5 in Calm     74 % 0.0 in 0.0 W/m2 CLR
01:49 19.8 °F 15.1 °F 1015.5 in Calm     74 % 0.0 in 0.0 W/m2 CLR
01:54 19.7 °F 15.2 °F 1015.8 in Calm     75 % 0.0 in 0.0 W/m2 CLR
01:59 19.7 °F 15.3 °F 1015.8 in Calm     76 % 0.0 in 0.0 W/m2 CLR
02:04 19.7 °F 15.4 °F 1015.8 in Calm     76 % 0.0 in 0.0 W/m2 CLR
02:09 19.7 °F 15.4 °F 1015.8 in Calm     76 % 0.0 in 0.0 W/m2 CLR
02:14 19.7 °F 15.4 °F 1015.8 in Calm     76 % 0.0 in 0.0 W/m2 CLR
02:19 19.6 °F 15.2 °F 1015.8 in Calm     76 % 0.0 in 0.0 W/m2 CLR
02:24 19.4 °F 15.1 °F 1015.8 in Calm     76 % 0.0 in 0.0 W/m2 CLR
02:29 19.2 °F 14.8 °F 1015.8 in Calm     76 % 0.0 in 0.0 W/m2 CLR
02:34 18.9 °F 14.8 °F 1015.8 in Calm     77 % 0.0 in 0.0 W/m2 CLR
02:39 18.8 °F 14.9 °F 1015.8 in Calm     78 % 0.0 in 0.0 W/m2 CLR
02:44 18.7 °F 14.8 °F 1015.8 in Calm     78 % 0.0 in 0.0 W/m2 CLR
02:49 18.6 °F 14.8 °F 1015.8 in Calm     79 % 0.0 in 0.0 W/m2 CLR
02:54 18.4 °F 14.9 °F 1015.8 in Calm     80 % 0.0 in 0.0 W/m2 CLR
02:59 18.3 °F 15.0 °F 1015.8 in Calm     81 % 0.0 in 0.0 W/m2 CLR
03:04 18.2 °F 14.9 °F 1015.8 in Calm     81 % 0.0 in 0.0 W/m2 CLR
03:09 18.1 °F 14.7 °F 1015.8 in Calm     81 % 0.0 in 0.0 W/m2 CLR
03:14 17.9 °F 14.6 °F 1015.8 in Calm     81 % 0.0 in 0.0 W/m2 CLR
03:19 17.9 °F 14.8 °F 1015.8 in Calm     82 % 0.0 in 0.0 W/m2 CLR
03:24 17.8 °F 14.7 °F 1015.8 in Calm     82 % 0.0 in 0.0 W/m2 CLR
03:29 17.7 °F 14.6 °F 1015.8 in Calm     82 % 0.0 in 0.0 W/m2 CLR
03:34 17.6 °F 14.5 °F 1015.8 in Calm     82 % 0.0 in 0.0 W/m2 CLR
03:39 17.5 °F 14.4 °F 1015.8 in Calm     82 % 0.0 in 0.0 W/m2 CLR
03:44 17.4 °F 14.4 °F 1015.8 in Calm     83 % 0.0 in 0.0 W/m2 CLR
03:49 17.3 °F 14.4 °F 1015.8 in Calm     83 % 0.0 in 0.0 W/m2 CLR
03:54 17.3 °F 14.4 °F 1015.8 in Calm     83 % 0.0 in 0.0 W/m2 CLR
03:59 17.2 °F 14.5 °F 1015.8 in Calm     84 % 0.0 in 0.0 W/m2 CLR
04:04 17.1 °F 14.4 °F 1015.8 in Calm     84 % 0.0 in 0.0 W/m2 CLR
04:10 17.0 °F 14.4 °F 1015.8 in Calm     85 % 0.0 in 0.0 W/m2 CLR
04:15 17.0 °F 14.4 °F 1015.8 in Calm     85 % 0.0 in 0.0 W/m2 CLR
04:20 16.9 °F 14.4 °F 1015.8 in Calm     85 % 0.0 in 0.0 W/m2 CLR
04:25 16.9 °F 14.3 °F 1015.8 in Calm     85 % 0.0 in 0.0 W/m2 CLR
04:30 16.8 °F 14.3 °F 1015.8 in Calm     85 % 0.0 in 0.0 W/m2 CLR
04:35 16.8 °F 14.3 °F 1015.8 in Calm     85 % 0.0 in 0.0 W/m2 CLR
04:40 16.8 °F 14.5 °F 1015.8 in Calm     86 % 0.0 in 0.0 W/m2 CLR
04:45 16.7 °F 14.4 °F 1015.8 in Calm     86 % 0.0 in 0.0 W/m2 CLR
04:50 16.7 °F 14.3 °F 1015.8 in Calm     86 % 0.0 in 0.0 W/m2 CLR
04:55 16.7 °F 14.3 °F 1015.8 in Calm     86 % 0.0 in 0.0 W/m2 CLR
05:00 16.7 °F 14.3 °F 1015.8 in Calm     86 % 0.0 in 0.0 W/m2 CLR
05:05 16.6 °F 14.2 °F 1016.1 in Calm     86 % 0.0 in 0.0 W/m2 CLR
05:10 16.5 °F 13.9 °F 1016.1 in Calm     85 % 0.0 in 0.0 W/m2 CLR
05:15 16.4 °F 14.1 °F 1016.1 in Calm     86 % 0.0 in 0.0 W/m2 CLR
05:20 16.3 °F 13.9 °F 1016.1 in West 1.9 mph   86 % 0.0 in 0.0 W/m2 CLR
05:25 16.2 °F 13.9 °F 1016.1 in Calm     86 % 0.0 in 0.0 W/m2 CLR
05:30 16.2 °F 13.9 °F 1015.8 in Calm     86 % 0.0 in 0.0 W/m2 CLR
05:35 16.2 °F 14.1 °F 1016.1 in Calm     87 % 0.0 in 0.0 W/m2 CLR
05:40 16.2 °F 13.9 °F 1016.1 in Calm     86 % 0.0 in 0.0 W/m2 CLR
05:45 16.2 °F 13.8 °F 1016.1 in Calm     86 % 0.0 in 0.0 W/m2 CLR
05:50 16.1 °F 13.8 °F 1016.1 in Calm     86 % 0.0 in 0.0 W/m2 CLR
05:55 16.1 °F 13.8 °F 1016.1 in Calm     86 % 0.0 in 0.0 W/m2 CLR
06:00 16.1 °F 13.8 °F 1016.1 in Calm     86 % 0.0 in 0.0 W/m2 CLR
06:05 16.0 °F 13.7 °F 1016.1 in Calm     86 % 0.0 in 0.0 W/m2 CLR
06:10 16.0 °F 13.7 °F 1016.5 in Calm     86 % 0.0 in 0.0 W/m2 CLR
06:15 15.9 °F 13.6 °F 1016.5 in Calm     86 % 0.0 in 0.0 W/m2 CLR
06:16 15.9 °F 13.6 °F 1016.5 in Calm     86 % 0.0 in 0.0 W/m2 OVC
06:21 15.9 °F 13.6 °F 1016.5 in Calm     86 % 0.0 in 0.0 W/m2 OVC
06:26 15.9 °F 13.6 °F 1016.5 in Calm     86 % 0.0 in 0.0 W/m2 OVC
06:31 15.8 °F 13.5 °F 1016.5 in Calm     86 % 0.0 in 5.0 W/m2 OVC
06:36 15.8 °F 13.4 °F 1016.5 in Calm     86 % 0.0 in 9.0 W/m2 BKN
06:41 15.8 °F 13.6 °F 1016.8 in Calm     87 % 0.0 in 14.0 W/m2 BKN
06:46 15.8 °F 13.4 °F 1016.8 in Calm     86 % 0.0 in 18.0 W/m2 BKN
06:51 15.8 °F 13.4 °F 1016.8 in Calm     86 % 0.0 in 25.0 W/m2 BKN
06:56 15.8 °F 13.4 °F 1016.8 in Calm     86 % 0.0 in 30.0 W/m2 BKN
07:01 15.8 °F 13.7 °F 1016.8 in Calm     87 % 0.0 in 35.0 W/m2 BKN
07:06 15.9 °F 13.7 °F 1016.8 in Calm     87 % 0.0 in 40.0 W/m2 BKN
07:11 15.9 °F 13.8 °F 1016.8 in Calm     87 % 0.0 in 47.0 W/m2 SCT
07:16 16.0 °F 13.8 °F 1017.2 in Calm     87 % 0.0 in 62.0 W/m2 SCT
07:21 16.2 °F 14.0 °F 1017.2 in Calm     87 % 0.0 in 70.0 W/m2 FEW
07:26 16.3 °F 14.2 °F 1017.2 in Calm     87 % 0.0 in 77.0 W/m2 FEW
07:31 16.5 °F 14.2 °F 1017.2 in Calm     86 % 0.0 in 91.0 W/m2 FEW
07:37 16.7 °F 14.4 °F 1017.2 in Calm     86 % 0.0 in 102.0 W/m2 CLR
07:42 16.9 °F 14.6 °F 1017.2 in Calm     86 % 0.0 in 109.0 W/m2 CLR
07:47 17.2 °F 14.7 °F 1017.2 in Calm     85 % 0.0 in 125.0 W/m2 CLR
07:52 17.5 °F 14.8 °F 1017.2 in Calm     84 % 0.0 in 118.0 W/m2 CLR
07:57 17.7 °F 14.8 °F 1017.2 in Calm     83 % 0.0 in 116.0 W/m2 CLR
08:02 17.8 °F 14.9 °F 1017.2 in Calm     83 % 0.0 in 128.0 W/m2 CLR
08:07 18.2 °F 15.4 °F 1017.5 in SSW 3.7 mph 3.7 mph 84 % 0.0 in 151.0 W/m2 CLR
08:12 18.4 °F 15.5 °F 1017.5 in SW 5.6 mph 5.6 mph 83 % 0.0 in 188.0 W/m2 CLR
08:17 18.8 °F 15.8 °F 1017.5 in WSW 7.4 mph 7.4 mph 83 % 0.0 in 207.0 W/m2 CLR
08:22 19.0 °F 15.8 °F 1017.5 in WSW 5.6 mph   82 % 0.0 in 229.0 W/m2 CLR
08:27 19.3 °F 16.2 °F 1017.5 in Calm     82 % 0.0 in 251.0 W/m2 CLR
08:32 19.6 °F 16.3 °F 1017.5 in Calm     81 % 0.0 in 267.0 W/m2 CLR
08:33 19.7 °F 16.4 °F 1017.5 in Calm     81 % 0.0 in 269.0 W/m2 CLR
08:38 20.1 °F 16.3 °F 1017.5 in Calm     79 % 0.0 in 274.0 W/m2 CLR
08:43 20.4 °F 16.3 °F 1017.5 in Calm     77 % 0.0 in 292.0 W/m2 CLR
08:48 20.8 °F 16.4 °F 1017.5 in Calm     76 % 0.0 in 302.0 W/m2 CLR
08:53 21.1 °F 16.5 °F 1017.5 in Calm     75 % 0.0 in 323.0 W/m2 CLR
08:58 21.4 °F 16.6 °F 1017.5 in Calm     74 % 0.0 in 339.0 W/m2 CLR
09:03 21.6 °F 16.8 °F 1017.5 in Calm     74 % 0.0 in 348.0 W/m2 CLR
09:08 21.7 °F 16.9 °F 1017.5 in Calm     74 % 0.0 in 369.0 W/m2 CLR
09:13 22.0 °F 16.9 °F 1017.5 in Calm     73 % 0.0 in 350.0 W/m2 CLR
09:18 22.1 °F 16.8 °F 1017.5 in Calm     72 % 0.0 in 367.0 W/m2 CLR
09:23 22.1 °F 16.6 °F 1017.5 in Calm     71 % 0.0 in 353.0 W/m2 CLR
09:28 22.3 °F 17.0 °F 1017.5 in Calm     72 % 0.0 in 396.0 W/m2 CLR
09:33 22.5 °F 17.0 °F 1017.5 in Calm     71 % 0.0 in 403.0 W/m2 CLR
09:38 22.6 °F 16.6 °F 1017.5 in Calm     69 % 0.0 in 461.0 W/m2 CLR
09:43 22.8 °F 16.8 °F 1017.5 in Calm     69 % 0.0 in 485.0 W/m2 CLR
09:48 23.2 °F 17.0 °F 1017.5 in Calm     68 % 0.0 in 494.0 W/m2 CLR
09:53 23.4 °F 16.9 °F 1017.5 in SW 19.3 mph 19.3 mph 67 % 0.0 in 510.0 W/m2 CLR
09:58 23.4 °F 16.7 °F 1017.5 in Calm     66 % 0.0 in 504.0 W/m2 CLR
10:03 23.5 °F 16.8 °F 1017.5 in Calm     66 % 0.0 in 524.0 W/m2 CLR
10:08 23.8 °F 16.8 °F 1017.5 in Calm     65 % 0.0 in 541.0 W/m2 CLR
10:13 24.1 °F 17.1 °F 1017.5 in Calm     65 % 0.0 in 561.0 W/m2 CLR
10:18 24.4 °F 16.9 °F 1017.5 in ESE 5.6 mph 5.6 mph 63 % 0.0 in 585.0 W/m2 CLR
10:24 24.4 °F 17.1 °F 1017.5 in Calm   1.8 mph 64 % 0.0 in 591.0 W/m2 CLR
10:29 24.4 °F 16.7 °F 1017.5 in Calm     62 % 0.0 in 577.0 W/m2 CLR
10:34 24.7 °F 16.9 °F 1017.5 in Calm     62 % 0.0 in 582.0 W/m2 CLR
10:39 24.8 °F 16.6 °F 1017.5 in Calm     60 % 0.0 in 615.0 W/m2 CLR
10:44 25.0 °F 16.2 °F 1017.5 in Calm     58 % 0.0 in 636.0 W/m2 CLR
10:49 25.0 °F 16.4 °F 1017.5 in Calm     59 % 0.0 in 640.0 W/m2 CLR
10:54 25.2 °F 16.4 °F 1017.5 in Calm     58 % 0.0 in 656.0 W/m2 CLR
10:59 25.3 °F 16.2 °F 1017.5 in Calm     57 % 0.0 in 659.0 W/m2 CLR
11:00 25.3 °F 15.9 °F 1017.5 in East 3.2 mph 3.2 mph 56 % 0.0 in 661.0 W/m2 CLR
11:05 25.3 °F 15.9 °F 1017.5 in ENE 7.4 mph 7.4 mph 56 % 0.0 in 684.0 W/m2 CLR
11:10 25.3 °F 16.2 °F 1017.5 in Calm     57 % 0.0 in 694.0 W/m2 CLR
11:15 25.8 °F 15.5 °F 1017.5 in Calm     53 % 0.0 in 700.0 W/m2 CLR
11:20 26.0 °F 15.4 °F 1017.5 in ENE 1.9 mph   52 % 0.0 in 708.0 W/m2 CLR
11:25 26.2 °F 15.0 °F 1017.5 in Calm     50 % 0.0 in 729.0 W/m2 CLR
11:30 26.3 °F 13.4 °F 1017.5 in Calm     45 % 0.0 in 744.0 W/m2 CLR
11:35 26.4 °F 13.2 °F 1017.2 in Calm     44 % 0.0 in 752.0 W/m2 CLR
11:40 26.8 °F 14.2 °F 1017.5 in Calm     46 % 0.0 in 761.0 W/m2 CLR
11:45 27.2 °F 14.9 °F 1017.5 in Calm     47 % 0.0 in 775.0 W/m2 CLR
11:50 27.4 °F 14.7 °F 1017.2 in Calm     46 % 0.0 in 784.0 W/m2 CLR
11:55 27.4 °F 15.1 °F 1017.5 in Calm     47 % 0.0 in 793.0 W/m2 CLR
12:00 27.6 °F 16.2 °F 1017.2 in Calm     50 % 0.0 in 802.0 W/m2 CLR
12:05 27.7 °F 16.1 °F 1017.2 in Calm     49 % 0.0 in 810.0 W/m2 CLR
12:10 28.0 °F 16.6 °F 1017.2 in NE 12.9 mph 12.9 mph 50 % 0.0 in 810.0 W/m2 CLR
12:20 28.1 °F 17.0 °F 1017.2 in NNE 7.4 mph 7.4 mph 51 % 0.0 in 830.0 W/m2 CLR
12:25 28.3 °F 16.9 °F 1017.2 in NE 8.0 mph 8.0 mph 50 % 0.0 in 838.0 W/m2 CLR
12:30 28.4 °F 16.7 °F 1017.2 in NE 14.8 mph 14.8 mph 49 % 0.0 in 844.0 W/m2 CLR
12:35 28.4 °F 15.7 °F 1017.2 in NE 13.0 mph 13.0 mph 46 % 0.0 in 846.0 W/m2 CLR
12:40 28.4 °F 16.4 °F 1016.8 in Calm     48 % 0.0 in 854.0 W/m2 CLR
12:45 28.7 °F 15.6 °F 1016.8 in NE 14.5 mph 14.5 mph 45 % 0.0 in 870.0 W/m2 CLR
12:50 28.7 °F 15.6 °F 1016.8 in NNW 13.0 mph 13.0 mph 45 % 0.0 in 872.0 W/m2 CLR
12:55 28.9 °F 15.4 °F 1016.8 in NNW 5.6 mph 5.6 mph 44 % 0.0 in 884.0 W/m2 CLR
13:00 29.1 °F 15.6 °F 1016.8 in NE 11.3 mph 11.3 mph 44 % 0.0 in 886.0 W/m2 CLR
13:05 29.3 °F 15.8 °F 1016.8 in NE 16.1 mph 16.1 mph 44 % 0.0 in 888.0 W/m2 CLR
13:10 29.4 °F 15.9 °F 1016.8 in NNE 9.3 mph 9.3 mph 44 % 0.0 in 893.0 W/m2 CLR
13:15 29.4 °F 16.2 °F 1016.8 in North 7.4 mph 7.4 mph 45 % 0.0 in 898.0 W/m2 CLR
13:20 29.5 °F 16.7 °F 1016.8 in ENE 11.1 mph 11.1 mph 46 % 0.0 in 905.0 W/m2 CLR
13:25 29.5 °F 16.3 °F 1016.5 in NNE 11.1 mph 11.1 mph 45 % 0.0 in 909.0 W/m2 CLR
13:30 29.7 °F 16.5 °F 1016.5 in NE 14.8 mph 14.8 mph 45 % 0.0 in 911.0 W/m2 CLR
13:35 29.9 °F 16.0 °F 1016.5 in NNE 13.0 mph 13.0 mph 43 % 0.0 in 916.0 W/m2 CLR
13:40 29.9 °F 15.9 °F 1016.5 in Calm     43 % 0.0 in 911.0 W/m2 CLR
13:45 30.2 °F 15.9 °F 1016.5 in ENE 11.1 mph 11.1 mph 42 % 0.0 in 911.0 W/m2 CLR
13:50 30.5 °F 15.8 °F 1016.5 in NNE 9.3 mph 9.3 mph 41 % 0.0 in 916.0 W/m2 CLR
13:55 30.6 °F 15.8 °F 1016.5 in NNE 5.6 mph 5.6 mph 41 % 0.0 in 926.0 W/m2 CLR
14:00 30.7 °F 15.9 °F 1016.1 in NE 12.9 mph 12.9 mph 41 % 0.0 in 909.0 W/m2 CLR
14:05 30.8 °F 16.4 °F 1016.1 in NE 14.8 mph 14.8 mph 42 % 0.0 in 902.0 W/m2 CLR
14:10 30.9 °F 16.6 °F 1016.1 in ENE 9.3 mph 9.3 mph 42 % 0.0 in 898.0 W/m2 CLR
14:15 31.0 °F 16.6 °F 1016.1 in NNE 7.4 mph 7.4 mph 42 % 0.0 in 882.0 W/m2 CLR
14:20 31.2 °F 16.7 °F 1016.1 in ESE 14.8 mph 14.8 mph 42 % 0.0 in 875.0 W/m2 CLR
14:25 31.0 °F 16.9 °F 1015.8 in ESE 11.1 mph 11.1 mph 43 % 0.0 in 835.0 W/m2 CLR
14:30 31.0 °F 16.9 °F 1015.8 in East 5.6 mph 5.6 mph 43 % 0.0 in 863.0 W/m2 CLR
14:35 30.9 °F 16.6 °F 1015.8 in ENE 9.3 mph 9.3 mph 42 % 0.0 in 867.0 W/m2 CLR
14:40 30.9 °F 16.2 °F 1015.8 in East 9.3 mph 9.3 mph 41 % 0.0 in 831.0 W/m2 CLR
14:45 31.2 °F 15.6 °F 1015.8 in ESE 11.3 mph 11.3 mph 39 % 0.0 in 854.0 W/m2 CLR
14:50 31.1 °F 15.9 °F 1015.8 in NE 8.0 mph 8.0 mph 40 % 0.0 in 865.0 W/m2 CLR
14:55 31.2 °F 15.6 °F 1015.8 in East 7.4 mph 7.4 mph 39 % 0.0 in 847.0 W/m2 CLR
15:00 31.1 °F 15.4 °F 1015.5 in ENE 14.8 mph 14.8 mph 39 % 0.0 in 872.0 W/m2 CLR
15:05 31.2 °F 16.0 °F 1015.5 in East 9.3 mph 9.3 mph 40 % 0.0 in 888.0 W/m2 CLR
15:10 31.2 °F 15.6 °F 1015.5 in Calm     39 % 0.0 in 886.0 W/m2 CLR
15:15 31.6 °F 16.8 °F 1015.5 in ESE 11.3 mph 11.3 mph 41 % 0.0 in 877.0 W/m2 CLR
15:20 31.7 °F 17.2 °F 1015.5 in ENE 9.3 mph 9.3 mph 42 % 0.0 in 868.0 W/m2 CLR
15:21 31.7 °F 17.2 °F 1015.5 in NE 9.3 mph 9.3 mph 42 % 0.0 in 868.0 W/m2 CLR
15:26 31.8 °F 16.9 °F 1015.5 in ESE 14.8 mph 14.8 mph 41 % 0.0 in 865.0 W/m2 CLR
15:31 31.9 °F 17.0 °F 1015.5 in NNE 14.8 mph 14.8 mph 41 % 0.0 in 856.0 W/m2 CLR
15:36 31.7 °F 17.2 °F 1015.5 in ENE 4.8 mph 4.8 mph 42 % 0.0 in 849.0 W/m2 CLR
15:41 31.9 °F 17.4 °F 1015.1 in NE 14.8 mph 14.8 mph 42 % 0.0 in 846.0 W/m2 CLR
15:46 32.3 °F 16.9 °F 1015.1 in ESE 3.2 mph   40 % 0.0 in 835.0 W/m2 CLR
15:51 32.3 °F 16.6 °F 1015.1 in ENE 4.8 mph 4.8 mph 39 % 0.0 in 828.0 W/m2 CLR
15:56 32.3 °F 17.3 °F 1015.1 in ESE 11.3 mph 11.3 mph 41 % 0.0 in 821.0 W/m2 CLR
16:01 32.0 °F 16.7 °F 1015.1 in ESE 9.3 mph 9.3 mph 40 % 0.0 in 814.0 W/m2 CLR
16:06 32.1 °F 16.8 °F 1015.1 in North 9.3 mph 9.3 mph 40 % 0.0 in 802.0 W/m2 CLR
16:11 32.4 °F 17.1 °F 1015.1 in North 18.5 mph 18.5 mph 40 % 0.0 in 793.0 W/m2 CLR
16:16 32.5 °F 16.8 °F 1015.1 in NNE 9.3 mph 9.3 mph 39 % 0.0 in 788.0 W/m2 CLR
16:21 32.7 °F 16.9 °F 1014.8 in ENE 9.3 mph 9.3 mph 39 % 0.0 in 773.0 W/m2 CLR
16:26 32.4 °F 16.7 °F 1014.8 in Calm     39 % 0.0 in 766.0 W/m2 CLR
16:36 32.4 °F 17.1 °F 1014.8 in ESE 9.3 mph 9.3 mph 40 % 0.0 in 745.0 W/m2 CLR
16:41 32.3 °F 17.4 °F 1014.8 in East 13.0 mph 13.0 mph 41 % 0.0 in 735.0 W/m2 CLR
16:46 32.2 °F 16.9 °F 1014.8 in ESE 7.4 mph 7.4 mph 40 % 0.0 in 721.0 W/m2 CLR
16:51 32.1 °F 16.8 °F 1014.8 in East 12.9 mph 12.9 mph 40 % 0.0 in 710.0 W/m2 CLR
16:56 32.1 °F 16.8 °F 1014.8 in ESE 14.5 mph 14.5 mph 40 % 0.0 in 701.0 W/m2 CLR
17:01 32.2 °F 16.9 °F 1014.4 in East 14.8 mph 14.8 mph 40 % 0.0 in 691.0 W/m2 CLR
17:06 32.2 °F 16.5 °F 1014.4 in East 18.5 mph 18.5 mph 39 % 0.0 in 677.0 W/m2 CLR
17:11 32.2 °F 16.8 °F 1014.4 in ENE 11.1 mph 11.1 mph 40 % 0.0 in 664.0 W/m2 CLR
17:16 32.4 °F 17.1 °F 1014.4 in East 13.0 mph 13.0 mph 40 % 0.0 in 654.0 W/m2 CLR
17:21 32.4 °F 16.7 °F 1014.4 in ENE 16.7 mph 16.7 mph 39 % 0.0 in 640.0 W/m2 CLR
17:26 32.4 °F 16.7 °F 1014.4 in East 7.4 mph 7.4 mph 39 % 0.0 in 624.0 W/m2 CLR
17:31 32.3 °F 16.6 °F 1014.4 in East 11.1 mph 11.1 mph 39 % 0.0 in 612.0 W/m2 CLR
17:36 32.4 °F 16.7 °F 1014.4 in East 13.0 mph 13.0 mph 39 % 0.0 in 599.0 W/m2 CLR
17:41 32.3 °F 16.6 °F 1014.4 in NE 13.0 mph 13.0 mph 39 % 0.0 in 587.0 W/m2 CLR
17:46 32.4 °F 16.7 °F 1014.4 in ENE 9.3 mph 9.3 mph 39 % 0.0 in 570.0 W/m2 CLR
17:51 32.4 °F 17.1 °F 1014.4 in East 13.0 mph 13.0 mph 40 % 0.0 in 561.0 W/m2 CLR
17:56 32.3 °F 16.6 °F 1014.4 in NE 5.6 mph 5.6 mph 39 % 0.0 in 547.0 W/m2 CLR
18:01 32.3 °F 16.9 °F 1014.4 in ESE 14.8 mph 14.8 mph 40 % 0.0 in 536.0 W/m2 CLR
18:06 32.1 °F 16.8 °F 1014.4 in ESE 9.7 mph 9.7 mph 40 % 0.0 in 522.0 W/m2 CLR
18:11 32.1 °F 16.4 °F 1014.4 in ESE 14.8 mph 14.8 mph 39 % 0.0 in 504.0 W/m2 CLR
18:16 32.1 °F 16.8 °F 1014.1 in SE 14.8 mph 14.8 mph 40 % 0.0 in 489.0 W/m2 CLR
18:21 31.9 °F 16.6 °F 1014.4 in ESE 11.3 mph 11.3 mph 40 % 0.0 in 476.0 W/m2 CLR
18:26 31.8 °F 16.2 °F 1014.1 in East 16.7 mph 16.7 mph 39 % 0.0 in 462.0 W/m2 CLR
18:31 31.8 °F 16.1 °F 1014.1 in ESE 16.1 mph 16.1 mph 39 % 0.0 in 452.0 W/m2 CLR
18:36 31.6 °F 15.9 °F 1014.1 in ESE 16.7 mph 16.7 mph 39 % 0.0 in 431.0 W/m2 CLR
18:41 31.5 °F 16.3 °F 1014.1 in East 11.3 mph 11.3 mph 40 % 0.0 in 415.0 W/m2 CLR
18:46 31.4 °F 16.2 °F 1014.1 in East 16.7 mph 16.7 mph 40 % 0.0 in 401.0 W/m2 CLR
18:51 31.3 °F 16.1 °F 1014.1 in ESE 18.5 mph 18.5 mph 40 % 0.0 in 387.0 W/m2 CLR
18:56 31.2 °F 15.9 °F 1014.1 in East 13.0 mph 13.0 mph 40 % 0.0 in 369.0 W/m2 CLR
19:01 31.2 °F 15.9 °F 1014.1 in ESE 13.0 mph 13.0 mph 40 % 0.0 in 355.0 W/m2 CLR
19:06 31.1 °F 15.9 °F 1014.1 in ESE 14.8 mph 14.8 mph 40 % 0.0 in 341.0 W/m2 CLR
19:11 31.1 °F 16.3 °F 1014.1 in East 13.0 mph 13.0 mph 41 % 0.0 in 325.0 W/m2 CLR
19:16 31.0 °F 15.8 °F 1014.1 in East 11.3 mph 11.3 mph 40 % 0.0 in 309.0 W/m2 CLR
19:21 30.8 °F 15.7 °F 1014.1 in East 11.1 mph 11.1 mph 40 % 0.0 in 294.0 W/m2 CLR
19:26 30.7 °F 15.9 °F 1014.1 in East 5.6 mph 5.6 mph 41 % 0.0 in 279.0 W/m2 CLR
19:31 30.7 °F 15.9 °F 1014.1 in ESE 11.1 mph 11.1 mph 41 % 0.0 in 264.0 W/m2 CLR
19:36 30.6 °F 15.8 °F 1014.1 in ESE 7.4 mph 7.4 mph 41 % 0.0 in 250.0 W/m2 CLR
19:41 30.4 °F 15.7 °F 1014.1 in ENE 5.6 mph 5.6 mph 41 % 0.0 in 232.0 W/m2 CLR
19:46 30.3 °F 15.6 °F 1014.1 in East 6.4 mph 6.4 mph 41 % 0.0 in 218.0 W/m2 CLR
19:51 30.1 °F 15.4 °F 1014.1 in East 5.6 mph 5.6 mph 41 % 0.0 in 202.0 W/m2 CLR
19:56 30.0 °F 15.3 °F 1014.1 in Calm     41 % 0.0 in 185.0 W/m2 CLR
20:01 29.9 °F 15.6 °F 1014.4 in Calm     42 % 0.0 in 165.0 W/m2 CLR
20:06 29.9 °F 15.6 °F 1014.4 in ESE 7.4 mph 7.4 mph 42 % 0.0 in 149.0 W/m2 CLR
20:11 29.8 °F 15.6 °F 1014.4 in East 9.7 mph 9.7 mph 42 % 0.0 in 134.0 W/m2 CLR
20:14 29.8 °F 15.6 °F 1014.1 in East 5.6 mph 5.6 mph 42 % 0.0 in 125.0 W/m2 CLR
20:19 29.8 °F 15.5 °F 1014.4 in ESE 8.0 mph 8.0 mph 42 % 0.0 in 109.0 W/m2 CLR
20:24 29.7 °F 15.4 °F 1014.4 in Calm     42 % 0.0 in 95.0 W/m2 CLR
20:29 29.6 °F 15.3 °F 1014.4 in SE 7.4 mph 7.4 mph 42 % 0.0 in 83.0 W/m2 CLR
20:35 29.4 °F 15.5 °F 1014.4 in Calm     43 % 0.0 in 70.0 W/m2 FEW
20:40 29.3 °F 15.4 °F 1014.4 in Calm     43 % 0.0 in 56.0 W/m2 SCT
20:45 29.2 °F 15.7 °F 1014.4 in East 5.6 mph 5.6 mph 44 % 0.0 in 30.0 W/m2 BKN
20:50 28.9 °F 15.4 °F 1014.4 in East 7.4 mph 7.4 mph 44 % 0.0 in 39.0 W/m2 BKN
20:54 28.7 °F 15.2 °F 1014.4 in East 5.6 mph 5.6 mph 44 % 0.0 in 30.0 W/m2 BKN
21:00 28.4 °F 14.9 °F 1014.4 in ESE 9.3 mph 9.3 mph 44 % 0.0 in 25.0 W/m2 BKN
21:05 28.1 °F 15.1 °F 1014.4 in East 1.9 mph 1.9 mph 45 % 0.0 in 18.0 W/m2 BKN
21:10 27.8 °F 14.8 °F 1014.4 in ESE 5.6 mph 5.6 mph 45 % 0.0 in 14.0 W/m2 BKN
21:15 27.6 °F 14.9 °F 1014.4 in Calm     46 % 0.0 in 12.0 W/m2 BKN
21:20 27.4 °F 14.8 °F 1014.4 in Calm     46 % 0.0 in 11.0 W/m2 BKN
21:25 27.2 °F 14.9 °F 1014.4 in Calm     47 % 0.0 in 7.0 W/m2 BKN
21:30 27.1 °F 14.8 °F 1014.4 in Calm     47 % 0.0 in 5.0 W/m2 OVC
21:35 27.0 °F 14.7 °F 1014.8 in Calm     47 % 0.0 in 0.0 W/m2 OVC
21:40 26.8 °F 14.9 °F 1014.4 in Calm     48 % 0.0 in 0.0 W/m2 OVC
21:45 26.7 °F 14.8 °F 1014.8 in Calm     48 % 0.0 in 0.0 W/m2 CLR
21:50 26.7 °F 14.7 °F 1014.8 in Calm     48 % 0.0 in 0.0 W/m2 CLR
21:55 26.4 °F 15.2 °F 1014.8 in Calm     50 % 0.0 in 0.0 W/m2 CLR
22:00 26.3 °F 15.0 °F 1014.8 in Calm     50 % 0.0 in 0.0 W/m2 CLR
22:05 26.1 °F 15.1 °F 1014.8 in Calm     51 % 0.0 in 0.0 W/m2 CLR
22:10 25.8 °F 14.9 °F 1014.8 in Calm     51 % 0.0 in 0.0 W/m2 CLR
22:15 25.6 °F 15.0 °F 1014.8 in Calm     52 % 0.0 in 0.0 W/m2 CLR
22:20 25.6 °F 14.9 °F 1015.1 in Calm     52 % 0.0 in 0.0 W/m2 CLR
22:25 25.4 °F 15.1 °F 1015.1 in Calm     53 % 0.0 in 0.0 W/m2 CLR
22:30 25.3 °F 15.0 °F 1015.1 in Calm     53 % 0.0 in 0.0 W/m2 CLR
22:35 25.2 °F 15.2 °F 1015.1 in Calm     54 % 0.0 in 0.0 W/m2 CLR
22:40 25.0 °F 15.1 °F 1015.1 in Calm     54 % 0.0 in 0.0 W/m2 CLR
22:45 24.9 °F 15.5 °F 1015.1 in Calm     56 % 0.0 in 0.0 W/m2 CLR
22:50 24.7 °F 15.6 °F 1015.5 in Calm     57 % 0.0 in 0.0 W/m2 CLR
22:55 24.5 °F 15.7 °F 1015.5 in Calm     58 % 0.0 in 0.0 W/m2 CLR
23:00 24.3 °F 15.8 °F 1015.5 in Calm     59 % 0.0 in 0.0 W/m2 CLR
23:05 24.1 °F 15.6 °F 1015.5 in Calm     59 % 0.0 in 0.0 W/m2 CLR
23:10 23.9 °F 15.9 °F 1015.5 in Calm     61 % 0.0 in 0.0 W/m2 CLR
23:15 23.8 °F 15.8 °F 1015.5 in Calm     61 % 0.0 in 0.0 W/m2 CLR
23:20 23.6 °F 16.2 °F 1015.5 in Calm     63 % 0.0 in 0.0 W/m2 CLR
23:25 23.4 °F 16.2 °F 1015.5 in Calm     64 % 0.0 in 0.0 W/m2 CLR
23:35 23.1 °F 16.1 °F 1015.5 in Calm     65 % 0.0 in 0.0 W/m2 CLR
23:40 23.0 °F 15.8 °F 1015.5 in Calm     64 % 0.0 in 0.0 W/m2 CLR
23:45 22.9 °F 15.3 °F 1015.8 in Calm     62 % 0.0 in 0.0 W/m2 CLR
23:50 22.9 °F 15.4 °F 1015.5 in Calm     63 % 0.0 in 0.0 W/m2 CLR
23:55 22.8 °F 15.9 °F 1015.8 in Calm     65 % 0.0 in 0.0 W/m2 CLR
Lo Temps de Massalio
Compliments of Weather Underground - 1.25 mb